Regional Weather Roundup
Issued by NWS

Home | Current Version | Previous Version | Text Only | Print | Product List | Glossary On
Versions: 1 2 3 4 5 6 7 8 9 10 11 12 13 14 15 16 17 18 19 20 21 22 23 24 25 26 27 28 29 30 31 32 33 34 35 36 37 38 39 40 41 42 43 44 45 46 47 48 49 50
000
ASUS43 KOAX 210310
RWRNE

WEATHER ROUNDUP FOR NEBRASKA
NATIONAL WEATHER SERVICE OMAHA NE
1000 PM CDT MON OCT 20 2014

NOTES: SATELLITE DATA IS BEING USED TO AUGMENT CLOUD COVER ABOVE
       12000 FEET.
       "FAIR" INDICATES FEW OR NO CLOUDS BELOW 12,000 FEET WITH NO
       SIGNIFICANT WEATHER AND/OR OBSTRUCTIONS TO VISIBILITY.

  * THESE STATIONS DO NOT REPORT WEATHER SUCH AS RAIN...SNOW OR FOG.

NEZ001>004-019>022-054>056-210400-
NEBRASKA PANHANDLE

CITY           SKY/WX    TMP DP  RH WIND       PRES   REMARKS
SCOTTSBLUFF    CLEAR     52  38  58 E8        30.01R
ALLIANCE       CLEAR     52  40  63 S13       30.01R
CHADRON        CLEAR     68  37  32 S20       29.92F
KIMBALL        CLEAR     56  35  44 S12       30.05S
SIDNEY         CLEAR     57  39  51 S14       30.07R
$$

NEZ057>060-069>072-079>082-210400-
SOUTHWEST NEBRASKA

CITY           SKY/WX    TMP DP  RH WIND       PRES   REMARKS
NORTH PLATTE   CLEAR     49  40  71 SE9       30.05S
IMPERIAL       CLEAR     62  37  39 S9        30.07R
LEXINGTON      CLEAR     55  41  60 SE5       30.06S
MCCOOK         CLEAR     56  40  55 S7        30.07S
OGALLALA       CLEAR     61  39  44 S13       30.04S
$$

NEZ005>010-023>029-035>040-094-210400-
NORTH CENTRAL NEBRASKA

CITY           SKY/WX    TMP DP  RH WIND       PRES   REMARKS
VALENTINE      CLEAR     58  39  49 S5        29.99S
AINSWORTH      CLEAR     58  42  54 S10       30.01S
BROKEN BOW     CLEAR     44  38  79 CALM      30.05S
O`NEILL        CLEAR     56  42  57 SE7       30.04S
ORD            CLEAR     48  40  73 CALM      30.04S
THEDFORD       CLEAR     61  40  46 S9        30.03S
$$

NEZ041-046>049-061>064-073>077-083>087-210400-
SOUTH CENTRAL NEBRASKA

CITY           SKY/WX    TMP DP  RH WIND       PRES   REMARKS
GRAND ISLAND   CLEAR     52  41  66 SE7       30.07S
AURORA         CLEAR     50  38  64 E6        30.07S HAZE
HASTINGS       CLEAR     53  40  61 SE3       30.07R
HEBRON         CLEAR     48  40  72 CALM      30.08R
HOLDREGE       CLEAR     54  41  62 CALM      30.07S HAZE
KEARNEY *      CLEAR     52  39  62 CALM      30.07S
YORK           CLEAR     55  37  50 SE5       30.08R
$$

NEZ011>018-030>034-042>045-210400-
NORTHEAST NEBRASKA

CITY           SKY/WX    TMP DP  RH WIND       PRES   REMARKS
NORFOLK        CLEAR     46  36  68 CALM      30.06R
ALBION         CLEAR     45  38  77 CALM      30.06S
BLAIR          CLEAR     60  37  43 CALM      30.06R
COLUMBUS *     CLEAR     43  34  70 CALM      30.08S
FREMONT        CLEAR     49  44  82 CALM      30.07R
TEKAMAH        CLEAR     45  39  79 CALM      30.06R
WAYNE          CLEAR     41  36  82 CALM      30.07S
$$

NEZ050>053-065>068-078-088>093-210400-
SOUTHEAST NEBRASKA

CITY           SKY/WX    TMP DP  RH WIND       PRES   REMARKS
LINCOLN        CLEAR     43  38  82 CALM      30.09R
OMAHA EPPLEY   CLEAR     52  43  71 CALM      30.07R
BEATRICE       CLEAR     48  40  73 CALM      30.07R
FALLS CITY     CLEAR     54  37  52 CALM      30.06R
NEBRASKA CITY  CLEAR     60  31  33 CALM      30.07S
PLATTSMOUTH    CLEAR     58  35  42 S5        30.06S
$$

NEZ044-045-051>053-067-210400-
OMAHA AREA

CITY           SKY/WX    TMP DP  RH WIND       PRES   REMARKS
OMAHA EPPLEY   CLEAR     52  43  71 CALM      30.07R
BLAIR          CLEAR     60  37  43 CALM      30.06R
FREMONT        CLEAR     49  44  82 CALM      30.07R
MILLARD        CLEAR     49  45  87 CALM      30.06R
OFFUTT AFB     CLEAR     44  44 100 CALM      30.06R
PLATTSMOUTH    CLEAR     58  35  42 S5        30.06S
WAHOO          FAIR      50  42  71 CALM      30.07R
$$


USA.gov is the U.S. government's official web portal to all federal, state and local government web resources and services.